FW0887 Weather Reports


Display with metric or nautical units.
time (UTC)temp
F
wind
direction
speed
MPH
gust
MPH
rain 1hr
in
rain 24hr
in
rain mn
in
humidity
%
barometer
mb
20200401073316 31 49 0.0 1.0 0.00 0.07 0.00 67 1025.6
20200401071801 30 49 0.0 1.0 0.00 0.07 0.00 67 1025.7
20200401070144 30 49 0.0 1.0 0.00 0.07 0.00 70 1025.8
20200401064726 27 49 0.0 1.0 0.00 0.07 0.00 74 1026.0
20200401063100 24 49 0.0 1.0 0.00 0.07 0.00 80 1026.1
20200401061624 21 49 0.0 0.0 0.00 0.07 0.00 83 1026.0
20200401060121 20 49 0.0 0.0 0.00 0.07 0.00 83 1026.0
20200401054643 20 49 0.0 0.0 0.00 0.07 0.00 83 1026.1
20200401053112 18 49 0.0 0.0 0.00 0.07 0.00 83 1026.1
20200401051720 19 49 0.0 0.0 0.00 0.07 0.00 82 1026.1
20200401050121 20 49 0.0 1.0 0.00 0.07 0.00 83 1025.9
20200401044621 19 49 0.0 0.0 0.00 0.07 0.00 83 1025.9
20200401043107 18 49 0.0 0.0 0.00 0.07 0.00 82 1025.8
20200401041559 19 49 0.0 0.0 0.00 0.07 0.00 81 1025.7
20200401040108 20 49 0.0 1.0 0.00 0.07 0.00 82 1025.8
20200401034552 19 49 0.0 0.0 0.00 0.07 0.00 82 1026.0
20200401033108 20 49 0.0 0.0 0.00 0.07 0.00 81 1026.0
20200401031545 21 49 0.0 1.0 0.00 0.07 0.00 81 1026.3
20200401030033 20 49 0.0 0.0 0.00 0.07 0.00 81 1026.3
20200401024631 21 49 0.0 1.0 0.00 0.07 0.00 81 1026.4
20200401023106 21 49 0.0 1.0 0.00 0.07 0.00 80 1026.6
20200401021527 21 49 0.0 0.0 0.00 0.07 0.00 80 1026.8
20200401020036 21 49 0.0 1.0 0.00 0.07 0.00 80 1026.8
20200401014536 22 49 0.0 1.0 0.00 0.07 0.00 79 1027.0
20200401013059 22 49 0.0 1.0 0.00 0.07 0.00 78 1027.0
20200401011543 22 49 0.0 0.0 0.00 0.07 0.00 79 1027.0
20200401010030 23 49 0.0 1.0 0.00 0.07 0.00 78 1027.1
20200401004538 22 49 0.0 1.0 0.00 0.07 0.00 80 1027.2
20200401003017 23 49 0.0 0.0 0.00 0.07 0.00 77 1027.2
20200401001523 23 49 0.0 2.0 0.00 0.07 0.00 76 1027.4
20200401000026 23 49 0.0 1.0 0.00 0.07 0.00 76 1027.6
20200331234533 24 49 0.0 1.0 0.00 0.07 0.00 76 1027.8
20200331233008 23 49 0.0 0.0 0.00 0.07 0.00 77 1027.8
20200331231506 24 49 0.0 1.0 0.00 0.07 0.00 76 1028.0
20200331224655 25 49 0.0 1.0 0.00 0.07 0.00 74 1028.3
20200331223120 26 49 0.0 1.0 0.00 0.07 0.00 72 1028.4
20200331221702 26 49 0.0 1.0 0.00 0.07 0.00 72 1028.4
20200331220421 26 49 0.0 1.0 0.00 0.07 0.00 73 1028.5
20200331214558 26 49 0.0 1.0 0.00 0.07 0.07 73 1028.5
20200331213127 27 49 0.0 1.0 0.00 0.07 0.07 72 1028.7
20200331211616 27 49 0.0 1.0 0.00 0.07 0.07 72 1028.6
20200331210118 27 49 0.0 1.0 0.00 0.07 0.07 72 1028.6
20200331204602 27 49 0.0 1.0 0.00 0.07 0.07 71 1028.7
20200331203051 28 49 0.0 2.0 0.00 0.07 0.07 71 1028.7
20200331201546 28 49 0.0 1.0 0.00 0.07 0.07 69 1028.6
20200331200119 28 49 0.0 0.0 0.00 0.07 0.07 68 1028.8
20200331194600 29 49 0.0 1.0 0.00 0.07 0.07 66 1028.9
20200331193132 29 49 0.0 0.0 0.00 0.07 0.07 65 1028.9
20200331191700 30 49 0.0 1.0 0.00 0.07 0.07 62 1028.9
20200331190124 31 49 0.0 2.0 0.00 0.07 0.07 59 1028.9
20200331184615 32 49 0.0 3.0 0.00 0.07 0.07 57 1029.0
20200331183055 32 55 0.0 3.0 0.00 0.07 0.07 56 1028.6
20200331181621 33 54 1.0 6.0 0.00 0.07 0.07 54 1028.5
20200331180106 34 40 1.0 4.0 0.00 0.07 0.07 53 1028.4
20200331174616 35 56 2.0 8.0 0.00 0.07 0.07 50 1028.2
20200331173108 36 78 1.0 5.0 0.00 0.07 0.07 48 1028.1
20200331171609 37 115 2.0 5.0 0.00 0.07 0.07 45 1028.0
20200331170051 38 63 1.0 5.0 0.00 0.07 0.07 43 1027.8
20200331164557 39 74 1.0 5.0 0.00 0.07 0.07 43 1027.8
20200331163109 40 319 1.0 5.0 0.00 0.07 0.07 42 1027.8
20200331161541 39 5 1.0 4.0 0.00 0.07 0.07 42 1027.8
20200331160048 39 355 1.0 6.0 0.00 0.07 0.07 43 1027.7
20200331154539 40 340 2.0 9.0 0.00 0.07 0.07 41 1027.6
20200331153047 39 13 1.0 4.0 0.00 0.07 0.07 44 1027.7
20200331151549 41 22 1.0 6.0 0.00 0.07 0.07 43 1027.6
20200331150047 42 96 2.0 5.0 0.00 0.07 0.07 42 1027.8
20200331144547 41 350 1.0 8.0 0.00 0.07 0.07 45 1027.7
20200331143110 39 95 1.0 6.0 0.00 0.07 0.07 44 1027.8
20200331141614 39 37 1.0 5.0 0.00 0.07 0.07 48 1027.9
20200331140031 39 40 3.0 9.0 0.00 0.07 0.07 47 1028.0
20200331134550 39 27 1.0 5.0 0.00 0.07 0.07 51 1028.0
20200331133022 39 45 3.0 10.0 0.00 0.07 0.07 54 1028.0
20200331131519 38 26 3.0 9.0 0.00 0.07 0.07 57 1028.1
20200331130028 38 304 1.0 6.0 0.01 0.07 0.07 62 1028.2
20200331124532 39 117 0.0 3.0 0.02 0.07 0.07 60 1028.3
20200331123045 36 37 0.0 4.0 0.06 0.07 0.07 68 1028.5
20200331121537 35 304 2.0 6.0 0.07 0.07 0.07 73 1028.8
20200331120016 38 28 2.0 10.0 0.06 0.06 0.06 70 1028.6
20200331114511 36 63 3.0 7.0 0.05 0.05 0.05 75 1028.6
20200331113016 35 108 2.0 3.0 0.01 0.01 0.01 77 1028.8
20200331111523 33 54 1.0 3.0 0.00 0.00 0.00 83 1029.0
20200331110015 32 40 0.0 3.0 0.00 0.00 0.00 86 1029.1
20200331104517 31 42 0.0 2.0 0.00 0.00 0.00 87 1029.2
20200331103010 31 49 0.0 2.0 0.00 0.00 0.00 87 1029.2
20200331101507 30 48 0.0 6.0 0.00 0.00 0.00 86 1029.3
20200331100002 31 42 2.0 5.0 0.00 0.00 0.00 85 1029.1
20200331094656 33 360 1.0 10.0 0.00 0.00 0.00 81 1029.0
20200331093141 35 42 3.0 8.0 0.00 0.00 0.00 73 1028.7
20200331090121 37 79 1.0 8.0 0.00 0.00 0.00 66 1028.4
20200331084656 37 309 2.0 11.0 0.00 0.00 0.00 65 1028.4
20200331083201 37 53 1.0 9.0 0.00 0.00 0.00 65 1028.3
20200331081655 36 11 1.0 6.0 0.00 0.00 0.00 66 1028.3
20200331080118 36 335 2.0 8.0 0.00 0.00 0.00 68 1028.2
20200331074708 36 350 1.0 5.0 0.00 0.00 0.00 69 1028.2